owner,sensor,date,latitude,longitude,vertical_datum,sea_water_temperature,qcFlag 
DISL,ioos:station:DISL:MBLA:1,2016-09-01T00:03:00Z,30.4367,-88.0117,0.5,29.58,2 
DISL,ioos:station:DISL:MBLA:1,2016-09-01T00:05:00Z,30.4367,-88.0117,0.5,29.65,2 
DISL,ioos:station:DISL:MBLA:1,2016-09-01T00:07:00Z,30.4367,-88.0117,0.5,30.06,2 
DISL,ioos:station:DISL:MBLA:1,2016-09-01T00:10:00Z,30.4367,-88.0117,0.5,30.2,2 
DISL,ioos:station:DISL:MBLA:1,2016-09-01T00:12:00Z,30.4367,-88.0117,0.5,30.23,2 
DISL,ioos:station:DISL:MBLA:1,2016-09-01T00:15:00Z,30.4367,-88.0117,0.5,30.23,2 
DISL,ioos:station:DISL:MBLA:1,2016-09-01T00:17:00Z,30.4367,-88.0117,0.5,30.21,2 
DISL,ioos:station:DISL:MBLA:1,2016-09-01T01:03:00Z,30.4367,-88.0117,0.5,29.65,2 
DISL,ioos:station:DISL:MBLA:1,2016-09-01T01:05:00Z,30.4367,-88.0117,0.5,29.78,2 
DISL,ioos:station:DISL:MBLA:1,2016-09-01T01:07:00Z,30.4367,-88.0117,0.5,30.09,2 
DISL,ioos:station:DISL:MBLA:1,2016-09-01T01:10:00Z,30.4367,-88.0117,0.5,30.17,2 
DISL,ioos:station:DISL:MBLA:1,2016-09-01T01:12:00Z,30.4367,-88.0117,0.5,30.17,2 
DISL,ioos:station:DISL:MBLA:1,2016-09-01T01:15:00Z,30.4367,-88.0117,0.5,30.16,2 
DISL,ioos:station:DISL:MBLA:1,2016-09-01T01:17:00Z,30.4367,-88.0117,0.5,30.15,2 
DISL,ioos:station:DISL:MBLA:1,2016-09-01T02:03:00Z,30.4367,-88.0117,0.5,29.67,2 
DISL,ioos:station:DISL:MBLA:1,2016-09-01T02:05:00Z,30.4367,-88.0117,0.5,29.99,2 
DISL,ioos:station:DISL:MBLA:1,2016-09-01T02:07:00Z,30.4367,-88.0117,0.5,30.19,2 
DISL,ioos:station:DISL:MBLA:1,2016-09-01T02:10:00Z,30.4367,-88.0117,0.5,30.23,2 
DISL,ioos:station:DISL:MBLA:1,2016-09-01T02:12:00Z,30.4367,-88.0117,0.5,30.15,2 
DISL,ioos:station:DISL:MBLA:1,2016-09-01T02:15:00Z,30.4367,-88.0117,0.5,30.13,2 
DISL,ioos:station:DISL:MBLA:1,2016-09-01T02:17:00Z,30.4367,-88.0117,0.5,30.13,2 
DISL,ioos:station:DISL:MBLA:1,2016-09-01T03:03:00Z,30.4367,-88.0117,0.5,29.76,2 
DISL,ioos:station:DISL:MBLA:1,2016-09-01T03:07:00Z,30.4367,-88.0117,0.5,30.2,2 
DISL,ioos:station:DISL:MBLA:1,2016-09-01T03:10:00Z,30.4367,-88.0117,0.5,30.16,2 
DISL,ioos:station:DISL:MBLA:1,2016-09-01T03:12:00Z,30.4367,-88.0117,0.5,30.08,2 
DISL,ioos:station:DISL:MBLA:1,2016-09-01T03:14:00Z,30.4367,-88.0117,0.5,30.03,2 
DISL,ioos:station:DISL:MBLA:1,2016-09-01T03:17:00Z,30.4367,-88.0117,0.5,30.02,2 
DISL,ioos:station:DISL:MBLA:1,2016-09-01T04:03:00Z,30.4367,-88.0117,0.5,29.77,2 
DISL,ioos:station:DISL:MBLA:1,2016-09-01T04:05:00Z,30.4367,-88.0117,0.5,30.04,2 
DISL,ioos:station:DISL:MBLA:1,2016-09-01T04:07:00Z,30.4367,-88.0117,0.5,30.12,2 
DISL,ioos:station:DISL:MBLA:1,2016-09-01T04:10:00Z,30.4367,-88.0117,0.5,30.03,2 
DISL,ioos:station:DISL:MBLA:1,2016-09-01T04:12:00Z,30.4367,-88.0117,0.5,29.94,2 
DISL,ioos:station:DISL:MBLA:1,2016-09-01T04:15:00Z,30.4367,-88.0117,0.5,29.93,2 
DISL,ioos:station:DISL:MBLA:1,2016-09-01T04:17:00Z,30.4367,-88.0117,0.5,29.93,2 
DISL,ioos:station:DISL:MBLA:1,2016-09-01T05:03:00Z,30.4367,-88.0117,0.5,29.8,2 
DISL,ioos:station:DISL:MBLA:1,2016-09-01T05:05:00Z,30.4367,-88.0117,0.5,30.05,2 
DISL,ioos:station:DISL:MBLA:1,2016-09-01T05:07:00Z,30.4367,-88.0117,0.5,29.98,2 
DISL,ioos:station:DISL:MBLA:1,2016-09-01T05:10:00Z,30.4367,-88.0117,0.5,29.88,2 
DISL,ioos:station:DISL:MBLA:1,2016-09-01T05:12:00Z,30.4367,-88.0117,0.5,29.85,2 
DISL,ioos:station:DISL:MBLA:1,2016-09-01T05:15:00Z,30.4367,-88.0117,0.5,29.85,2 
DISL,ioos:station:DISL:MBLA:1,2016-09-01T05:17:00Z,30.4367,-88.0117,0.5,29.84,2 
DISL,ioos:station:DISL:MBLA:1,2016-09-01T06:03:00Z,30.4367,-88.0117,0.5,29.88,2 
DISL,ioos:station:DISL:MBLA:1,2016-09-01T06:05:00Z,30.4367,-88.0117,0.5,30.04,2 
DISL,ioos:station:DISL:MBLA:1,2016-09-01T06:07:00Z,30.4367,-88.0117,0.5,30.0,2 
DISL,ioos:station:DISL:MBLA:1,2016-09-01T06:10:00Z,30.4367,-88.0117,0.5,29.83,2 
DISL,ioos:station:DISL:MBLA:1,2016-09-01T06:12:00Z,30.4367,-88.0117,0.5,29.81,2 
DISL,ioos:station:DISL:MBLA:1,2016-09-01T06:14:00Z,30.4367,-88.0117,0.5,29.79,2 
DISL,ioos:station:DISL:MBLA:1,2016-09-01T06:17:00Z,30.4367,-88.0117,0.5,29.77,2 
DISL,ioos:station:DISL:MBLA:1,2016-09-01T07:03:00Z,30.4367,-88.0117,0.5,29.89,2 
DISL,ioos:station:DISL:MBLA:1,2016-09-01T07:07:00Z,30.4367,-88.0117,0.5,29.92,2 
DISL,ioos:station:DISL:MBLA:1,2016-09-01T07:10:00Z,30.4367,-88.0117,0.5,29.79,2 
DISL,ioos:station:DISL:MBLA:1,2016-09-01T07:12:00Z,30.4367,-88.0117,0.5,29.84,2 
DISL,ioos:station:DISL:MBLA:1,2016-09-01T07:15:00Z,30.4367,-88.0117,0.5,29.83,2 
DISL,ioos:station:DISL:MBLA:1,2016-09-01T07:17:00Z,30.4367,-88.0117,0.5,29.82,2 
DISL,ioos:station:DISL:MBLA:1,2016-09-01T08:03:00Z,30.4367,-88.0117,0.5,29.89,2 
DISL,ioos:station:DISL:MBLA:1,2016-09-01T08:05:00Z,30.4367,-88.0117,0.5,29.91,2 
DISL,ioos:station:DISL:MBLA:1,2016-09-01T08:07:00Z,30.4367,-88.0117,0.5,29.85,2 
DISL,ioos:station:DISL:MBLA:1,2016-09-01T08:10:00Z,30.4367,-88.0117,0.5,29.76,2 
DISL,ioos:station:DISL:MBLA:1,2016-09-01T08:12:00Z,30.4367,-88.0117,0.5,29.72,2 
DISL,ioos:station:DISL:MBLA:1,2016-09-01T08:15:00Z,30.4367,-88.0117,0.5,29.73,2 
DISL,ioos:station:DISL:MBLA:1,2016-09-01T08:17:00Z,30.4367,-88.0117,0.5,29.72,2 
DISL,ioos:station:DISL:MBLA:1,2016-09-01T09:03:00Z,30.4367,-88.0117,0.5,29.91,2 
DISL,ioos:station:DISL:MBLA:1,2016-09-01T09:05:00Z,30.4367,-88.0117,0.5,29.86,2 
DISL,ioos:station:DISL:MBLA:1,2016-09-01T09:07:00Z,30.4367,-88.0117,0.5,29.82,2 
DISL,ioos:station:DISL:MBLA:1,2016-09-01T09:10:00Z,30.4367,-88.0117,0.5,29.71,2 
DISL,ioos:station:DISL:MBLA:1,2016-09-01T09:12:00Z,30.4367,-88.0117,0.5,29.65,2 
DISL,ioos:station:DISL:MBLA:1,2016-09-01T09:15:00Z,30.4367,-88.0117,0.5,29.62,2 
DISL,ioos:station:DISL:MBLA:1,2016-09-01T09:17:00Z,30.4367,-88.0117,0.5,29.58,2 
DISL,ioos:station:DISL:MBLA:1,2016-09-01T10:03:00Z,30.4367,-88.0117,0.5,29.93,2 
DISL,ioos:station:DISL:MBLA:1,2016-09-01T10:05:00Z,30.4367,-88.0117,0.5,29.91,2 
DISL,ioos:station:DISL:MBLA:1,2016-09-01T10:07:00Z,30.4367,-88.0117,0.5,29.89,2 
DISL,ioos:station:DISL:MBLA:1,2016-09-01T10:10:00Z,30.4367,-88.0117,0.5,29.82,2 
DISL,ioos:station:DISL:MBLA:1,2016-09-01T10:12:00Z,30.4367,-88.0117,0.5,29.68,2 
DISL,ioos:station:DISL:MBLA:1,2016-09-01T10:15:00Z,30.4367,-88.0117,0.5,29.58,2 
DISL,ioos:station:DISL:MBLA:1,2016-09-01T10:17:00Z,30.4367,-88.0117,0.5,29.57,2 
DISL,ioos:station:DISL:MBLA:1,2016-09-01T11:03:00Z,30.4367,-88.0117,0.5,29.93,2 
DISL,ioos:station:DISL:MBLA:1,2016-09-01T11:05:00Z,30.4367,-88.0117,0.5,29.92,2 
DISL,ioos:station:DISL:MBLA:1,2016-09-01T11:07:00Z,30.4367,-88.0117,0.5,29.91,2 
DISL,ioos:station:DISL:MBLA:1,2016-09-01T11:10:00Z,30.4367,-88.0117,0.5,29.78,2 
DISL,ioos:station:DISL:MBLA:1,2016-09-01T11:12:00Z,30.4367,-88.0117,0.5,29.65,2 
DISL,ioos:station:DISL:MBLA:1,2016-09-01T11:15:00Z,30.4367,-88.0117,0.5,29.53,2 
DISL,ioos:station:DISL:MBLA:1,2016-09-01T11:17:00Z,30.4367,-88.0117,0.5,29.49,2 
DISL,ioos:station:DISL:MBLA:1,2016-09-01T14:03:00Z,30.4367,-88.0117,0.5,29.99,2 
DISL,ioos:station:DISL:MBLA:1,2016-09-01T14:05:00Z,30.4367,-88.0117,0.5,29.79,2 
DISL,ioos:station:DISL:MBLA:1,2016-09-01T14:07:00Z,30.4367,-88.0117,0.5,29.68,2 
DISL,ioos:station:DISL:MBLA:1,2016-09-01T14:10:00Z,30.4367,-88.0117,0.5,29.68,2 
DISL,ioos:station:DISL:MBLA:1,2016-09-01T14:12:00Z,30.4367,-88.0117,0.5,29.67,2 
DISL,ioos:station:DISL:MBLA:1,2016-09-01T14:15:00Z,30.4367,-88.0117,0.5,29.67,2 
DISL,ioos:station:DISL:MBLA:1,2016-09-01T14:17:00Z,30.4367,-88.0117,0.5,29.66,2 
DISL,ioos:station:DISL:MBLA:1,2016-09-01T15:03:00Z,30.4367,-88.0117,0.5,29.97,2 
DISL,ioos:station:DISL:MBLA:1,2016-09-01T15:05:00Z,30.4367,-88.0117,0.5,29.85,2 
DISL,ioos:station:DISL:MBLA:1,2016-09-01T15:07:00Z,30.4367,-88.0117,0.5,29.69,2 
DISL,ioos:station:DISL:MBLA:1,2016-09-01T15:10:00Z,30.4367,-88.0117,0.5,29.66,2 
DISL,ioos:station:DISL:MBLA:1,2016-09-01T15:12:00Z,30.4367,-88.0117,0.5,29.68,2 
DISL,ioos:station:DISL:MBLA:1,2016-09-01T15:15:00Z,30.4367,-88.0117,0.5,29.73,2 
DISL,ioos:station:DISL:MBLA:1,2016-09-01T15:17:00Z,30.4367,-88.0117,0.5,29.73,2 
DISL,ioos:station:DISL:MBLA:1,2016-09-01T16:03:00Z,30.4367,-88.0117,0.5,29.94,2 
DISL,ioos:station:DISL:MBLA:1,2016-09-01T16:05:00Z,30.4367,-88.0117,0.5,29.86,2 
DISL,ioos:station:DISL:MBLA:1,2016-09-01T16:07:00Z,30.4367,-88.0117,0.5,29.66,2 
DISL,ioos:station:DISL:MBLA:1,2016-09-01T16:10:00Z,30.4367,-88.0117,0.5,29.67,2 
DISL,ioos:station:DISL:MBLA:1,2016-09-01T16:12:00Z,30.4367,-88.0117,0.5,29.69,2 
DISL,ioos:station:DISL:MBLA:1,2016-09-01T16:15:00Z,30.4367,-88.0117,0.5,29.79,2 
DISL,ioos:station:DISL:MBLA:1,2016-09-01T16:18:00Z,30.4367,-88.0117,0.5,29.8,2 
DISL,ioos:station:DISL:MBLA:1,2016-09-01T17:03:00Z,30.4367,-88.0117,0.5,29.89,2 
DISL,ioos:station:DISL:MBLA:1,2016-09-01T17:07:00Z,30.4367,-88.0117,0.5,29.77,2 
DISL,ioos:station:DISL:MBLA:1,2016-09-01T17:10:00Z,30.4367,-88.0117,0.5,29.78,2 
DISL,ioos:station:DISL:MBLA:1,2016-09-01T17:12:00Z,30.4367,-88.0117,0.5,29.8,2 
DISL,ioos:station:DISL:MBLA:1,2016-09-01T17:15:00Z,30.4367,-88.0117,0.5,29.85,2 
DISL,ioos:station:DISL:MBLA:1,2016-09-01T17:17:00Z,30.4367,-88.0117,0.5,29.87,2 
DISL,ioos:station:DISL:MBLA:1,2016-09-01T18:03:00Z,30.4367,-88.0117,0.5,29.87,2 
DISL,ioos:station:DISL:MBLA:1,2016-09-01T18:05:00Z,30.4367,-88.0117,0.5,29.82,2 
DISL,ioos:station:DISL:MBLA:1,2016-09-01T18:07:00Z,30.4367,-88.0117,0.5,29.76,2 
DISL,ioos:station:DISL:MBLA:1,2016-09-01T18:10:00Z,30.4367,-88.0117,0.5,29.82,2 
DISL,ioos:station:DISL:MBLA:1,2016-09-01T18:12:00Z,30.4367,-88.0117,0.5,29.85,2 
DISL,ioos:station:DISL:MBLA:1,2016-09-01T18:15:00Z,30.4367,-88.0117,0.5,29.97,2 
DISL,ioos:station:DISL:MBLA:1,2016-09-01T18:18:00Z,30.4367,-88.0117,0.5,30.03,2 
DISL,ioos:station:DISL:MBLA:1,2016-09-01T19:02:00Z,30.4367,-88.0117,0.5,29.88,2 
DISL,ioos:station:DISL:MBLA:1,2016-09-01T19:05:00Z,30.4367,-88.0117,0.5,29.87,2 
DISL,ioos:station:DISL:MBLA:1,2016-09-01T19:07:00Z,30.4367,-88.0117,0.5,29.84,2 
DISL,ioos:station:DISL:MBLA:1,2016-09-01T19:10:00Z,30.4367,-88.0117,0.5,29.89,2 
DISL,ioos:station:DISL:MBLA:1,2016-09-01T19:12:00Z,30.4367,-88.0117,0.5,29.94,2 
DISL,ioos:station:DISL:MBLA:1,2016-09-01T19:15:00Z,30.4367,-88.0117,0.5,30.05,2 
DISL,ioos:station:DISL:MBLA:1,2016-09-01T19:18:00Z,30.4367,-88.0117,0.5,30.05,2 
DISL,ioos:station:DISL:MBLA:1,2016-09-01T20:03:00Z,30.4367,-88.0117,0.5,29.89,2 
DISL,ioos:station:DISL:MBLA:1,2016-09-01T20:05:00Z,30.4367,-88.0117,0.5,29.94,2 
DISL,ioos:station:DISL:MBLA:1,2016-09-01T20:07:00Z,30.4367,-88.0117,0.5,29.98,2 
DISL,ioos:station:DISL:MBLA:1,2016-09-01T20:10:00Z,30.4367,-88.0117,0.5,30.01,2 
DISL,ioos:station:DISL:MBLA:1,2016-09-01T20:12:00Z,30.4367,-88.0117,0.5,30.1,2 
DISL,ioos:station:DISL:MBLA:1,2016-09-01T20:15:00Z,30.4367,-88.0117,0.5,30.11,2 
DISL,ioos:station:DISL:MBLA:1,2016-09-01T20:18:00Z,30.4367,-88.0117,0.5,30.1,2 
DISL,ioos:station:DISL:MBLA:1,2016-09-01T21:03:00Z,30.4367,-88.0117,0.5,29.89,2 
DISL,ioos:station:DISL:MBLA:1,2016-09-01T21:05:00Z,30.4367,-88.0117,0.5,29.95,2 
DISL,ioos:station:DISL:MBLA:1,2016-09-01T21:07:00Z,30.4367,-88.0117,0.5,29.99,2 
DISL,ioos:station:DISL:MBLA:1,2016-09-01T21:10:00Z,30.4367,-88.0117,0.5,30.08,2 
DISL,ioos:station:DISL:MBLA:1,2016-09-01T21:12:00Z,30.4367,-88.0117,0.5,30.15,2 
DISL,ioos:station:DISL:MBLA:1,2016-09-01T21:15:00Z,30.4367,-88.0117,0.5,30.16,2 
DISL,ioos:station:DISL:MBLA:1,2016-09-01T21:17:00Z,30.4367,-88.0117,0.5,30.17,2 
DISL,ioos:station:DISL:MBLA:1,2016-09-01T22:03:00Z,30.4367,-88.0117,0.5,29.93,2 
DISL,ioos:station:DISL:MBLA:1,2016-09-01T22:05:00Z,30.4367,-88.0117,0.5,30.03,2 
DISL,ioos:station:DISL:MBLA:1,2016-09-01T22:08:00Z,30.4367,-88.0117,0.5,30.09,2 
DISL,ioos:station:DISL:MBLA:1,2016-09-01T22:10:00Z,30.4367,-88.0117,0.5,30.18,2 
DISL,ioos:station:DISL:MBLA:1,2016-09-01T22:12:00Z,30.4367,-88.0117,0.5,30.21,2 
DISL,ioos:station:DISL:MBLA:1,2016-09-01T22:15:00Z,30.4367,-88.0117,0.5,30.21,2 
DISL,ioos:station:DISL:MBLA:1,2016-09-01T22:18:00Z,30.4367,-88.0117,0.5,30.21,2 
DISL,ioos:station:DISL:MBLA:1,2016-09-01T23:03:00Z,30.4367,-88.0117,0.5,29.99,2 
DISL,ioos:station:DISL:MBLA:1,2016-09-01T23:05:00Z,30.4367,-88.0117,0.5,30.09,2 
DISL,ioos:station:DISL:MBLA:1,2016-09-01T23:07:00Z,30.4367,-88.0117,0.5,30.11,2 
DISL,ioos:station:DISL:MBLA:1,2016-09-01T23:10:00Z,30.4367,-88.0117,0.5,30.14,2 
DISL,ioos:station:DISL:MBLA:1,2016-09-01T23:12:00Z,30.4367,-88.0117,0.5,30.14,2 
DISL,ioos:station:DISL:MBLA:1,2016-09-01T23:15:00Z,30.4367,-88.0117,0.5,30.13,2 
DISL,ioos:station:DISL:MBLA:1,2016-09-01T23:17:00Z,30.4367,-88.0117,0.5,30.13,2 
DISL,ioos:station:DISL:MBLA:1,2016-09-02T00:03:00Z,30.4367,-88.0117,0.5,29.98,2 
DISL,ioos:station:DISL:MBLA:1,2016-09-02T00:05:00Z,30.4367,-88.0117,0.5,30.13,2 
DISL,ioos:station:DISL:MBLA:1,2016-09-02T00:07:00Z,30.4367,-88.0117,0.5,30.13,2 
DISL,ioos:station:DISL:MBLA:1,2016-09-02T00:10:00Z,30.4367,-88.0117,0.5,30.13,2 
DISL,ioos:station:DISL:MBLA:1,2016-09-02T00:12:00Z,30.4367,-88.0117,0.5,30.12,2 
DISL,ioos:station:DISL:MBLA:1,2016-09-02T00:15:00Z,30.4367,-88.0117,0.5,30.12,2 
DISL,ioos:station:DISL:MBLA:1,2016-09-02T00:17:00Z,30.4367,-88.0117,0.5,30.11,2 
DISL,ioos:station:DISL:MBLA:1,2016-09-02T01:03:00Z,30.4367,-88.0117,0.5,29.9,2 
DISL,ioos:station:DISL:MBLA:1,2016-09-02T01:05:00Z,30.4367,-88.0117,0.5,30.0,2 
DISL,ioos:station:DISL:MBLA:1,2016-09-02T01:07:00Z,30.4367,-88.0117,0.5,30.02,2 
DISL,ioos:station:DISL:MBLA:1,2016-09-02T01:10:00Z,30.4367,-88.0117,0.5,30.02,2 
DISL,ioos:station:DISL:MBLA:1,2016-09-02T01:12:00Z,30.4367,-88.0117,0.5,30.01,2 
DISL,ioos:station:DISL:MBLA:1,2016-09-02T01:14:00Z,30.4367,-88.0117,0.5,30.01,2 
DISL,ioos:station:DISL:MBLA:1,2016-09-02T01:17:00Z,30.4367,-88.0117,0.5,29.99,2 
DISL,ioos:station:DISL:MBLA:1,2016-09-02T02:03:00Z,30.4367,-88.0117,0.5,29.94,2 
DISL,ioos:station:DISL:MBLA:1,2016-09-02T02:05:00Z,30.4367,-88.0117,0.5,30.0,2 
DISL,ioos:station:DISL:MBLA:1,2016-09-02T02:07:00Z,30.4367,-88.0117,0.5,30.01,2 
DISL,ioos:station:DISL:MBLA:1,2016-09-02T02:10:00Z,30.4367,-88.0117,0.5,30.0,2 
DISL,ioos:station:DISL:MBLA:1,2016-09-02T02:12:00Z,30.4367,-88.0117,0.5,29.92,2 
DISL,ioos:station:DISL:MBLA:1,2016-09-02T02:15:00Z,30.4367,-88.0117,0.5,29.91,2 
DISL,ioos:station:DISL:MBLA:1,2016-09-02T02:17:00Z,30.4367,-88.0117,0.5,29.9,2 
DISL,ioos:station:DISL:MBLA:1,2016-09-02T03:03:00Z,30.4367,-88.0117,0.5,29.88,2 
DISL,ioos:station:DISL:MBLA:1,2016-09-02T03:07:00Z,30.4367,-88.0117,0.5,29.98,2 
DISL,ioos:station:DISL:MBLA:1,2016-09-02T03:10:00Z,30.4367,-88.0117,0.5,29.97,2 
DISL,ioos:station:DISL:MBLA:1,2016-09-02T03:12:00Z,30.4367,-88.0117,0.5,29.92,2 
DISL,ioos:station:DISL:MBLA:1,2016-09-02T03:15:00Z,30.4367,-88.0117,0.5,29.85,2 
DISL,ioos:station:DISL:MBLA:1,2016-09-02T03:17:00Z,30.4367,-88.0117,0.5,29.85,2 
DISL,ioos:station:DISL:MBLA:1,2016-09-02T04:03:00Z,30.4367,-88.0117,0.5,29.88,2 
DISL,ioos:station:DISL:MBLA:1,2016-09-02T04:05:00Z,30.4367,-88.0117,0.5,29.9,2 
DISL,ioos:station:DISL:MBLA:1,2016-09-02T04:07:00Z,30.4367,-88.0117,0.5,29.92,2 
DISL,ioos:station:DISL:MBLA:1,2016-09-02T04:10:00Z,30.4367,-88.0117,0.5,29.87,2 
DISL,ioos:station:DISL:MBLA:1,2016-09-02T04:12:00Z,30.4367,-88.0117,0.5,29.85,2 
DISL,ioos:station:DISL:MBLA:1,2016-09-02T04:14:00Z,30.4367,-88.0117,0.5,29.83,2 
DISL,ioos:station:DISL:MBLA:1,2016-09-02T04:17:00Z,30.4367,-88.0117,0.5,29.77,2 
DISL,ioos:station:DISL:MBLA:1,2016-09-02T05:03:00Z,30.4367,-88.0117,0.5,29.88,2 
DISL,ioos:station:DISL:MBLA:1,2016-09-02T05:05:00Z,30.4367,-88.0117,0.5,29.88,2 
DISL,ioos:station:DISL:MBLA:1,2016-09-02T05:07:00Z,30.4367,-88.0117,0.5,29.88,2 
DISL,ioos:station:DISL:MBLA:1,2016-09-02T05:10:00Z,30.4367,-88.0117,0.5,29.83,2 
DISL,ioos:station:DISL:MBLA:1,2016-09-02T05:12:00Z,30.4367,-88.0117,0.5,29.79,2 
DISL,ioos:station:DISL:MBLA:1,2016-09-02T05:15:00Z,30.4367,-88.0117,0.5,29.74,2 
DISL,ioos:station:DISL:MBLA:1,2016-09-02T05:17:00Z,30.4367,-88.0117,0.5,29.68,2 
DISL,ioos:station:DISL:MBLA:1,2016-09-02T06:03:00Z,30.4367,-88.0117,0.5,29.93,2 
DISL,ioos:station:DISL:MBLA:1,2016-09-02T06:05:00Z,30.4367,-88.0117,0.5,29.9,2 
DISL,ioos:station:DISL:MBLA:1,2016-09-02T06:07:00Z,30.4367,-88.0117,0.5,29.85,2 
DISL,ioos:station:DISL:MBLA:1,2016-09-02T06:10:00Z,30.4367,-88.0117,0.5,29.79,2 
DISL,ioos:station:DISL:MBLA:1,2016-09-02T06:12:00Z,30.4367,-88.0117,0.5,29.77,2 
DISL,ioos:station:DISL:MBLA:1,2016-09-02T06:15:00Z,30.4367,-88.0117,0.5,29.73,2 
DISL,ioos:station:DISL:MBLA:1,2016-09-02T06:17:00Z,30.4367,-88.0117,0.5,29.69,2 
DISL,ioos:station:DISL:MBLA:1,2016-09-02T07:03:00Z,30.4367,-88.0117,0.5,29.92,2 
DISL,ioos:station:DISL:MBLA:1,2016-09-02T07:07:00Z,30.4367,-88.0117,0.5,29.78,2 
DISL,ioos:station:DISL:MBLA:1,2016-09-02T07:10:00Z,30.4367,-88.0117,0.5,29.72,2 
DISL,ioos:station:DISL:MBLA:1,2016-09-02T07:12:00Z,30.4367,-88.0117,0.5,29.65,2 
DISL,ioos:station:DISL:MBLA:1,2016-09-02T07:15:00Z,30.4367,-88.0117,0.5,29.62,2 
DISL,ioos:station:DISL:MBLA:1,2016-09-02T07:17:00Z,30.4367,-88.0117,0.5,29.56,2 
DISL,ioos:station:DISL:MBLA:1,2016-09-02T08:03:00Z,30.4367,-88.0117,0.5,29.92,2 
DISL,ioos:station:DISL:MBLA:1,2016-09-02T08:05:00Z,30.4367,-88.0117,0.5,29.84,2 
DISL,ioos:station:DISL:MBLA:1,2016-09-02T08:07:00Z,30.4367,-88.0117,0.5,29.69,2 
DISL,ioos:station:DISL:MBLA:1,2016-09-02T08:10:00Z,30.4367,-88.0117,0.5,29.65,2 
DISL,ioos:station:DISL:MBLA:1,2016-09-02T08:12:00Z,30.4367,-88.0117,0.5,29.58,2 
DISL,ioos:station:DISL:MBLA:1,2016-09-02T08:15:00Z,30.4367,-88.0117,0.5,29.54,2 
DISL,ioos:station:DISL:MBLA:1,2016-09-02T08:17:00Z,30.4367,-88.0117,0.5,29.48,2 
DISL,ioos:station:DISL:MBLA:1,2016-09-02T09:03:00Z,30.4367,-88.0117,0.5,29.9,2 
DISL,ioos:station:DISL:MBLA:1,2016-09-02T09:05:00Z,30.4367,-88.0117,0.5,29.77,2 
DISL,ioos:station:DISL:MBLA:1,2016-09-02T09:07:00Z,30.4367,-88.0117,0.5,29.66,2 
DISL,ioos:station:DISL:MBLA:1,2016-09-02T09:10:00Z,30.4367,-88.0117,0.5,29.55,2 
DISL,ioos:station:DISL:MBLA:1,2016-09-02T09:12:00Z,30.4367,-88.0117,0.5,29.49,2 
DISL,ioos:station:DISL:MBLA:1,2016-09-02T09:14:00Z,30.4367,-88.0117,0.5,29.46,2 
DISL,ioos:station:DISL:MBLA:1,2016-09-02T09:17:00Z,30.4367,-88.0117,0.5,29.43,2 
DISL,ioos:station:DISL:MBLA:1,2016-09-02T10:03:00Z,30.4367,-88.0117,0.5,29.88,2 
DISL,ioos:station:DISL:MBLA:1,2016-09-02T10:05:00Z,30.4367,-88.0117,0.5,29.71,2 
DISL,ioos:station:DISL:MBLA:1,2016-09-02T10:07:00Z,30.4367,-88.0117,0.5,29.53,2 
DISL,ioos:station:DISL:MBLA:1,2016-09-02T10:10:00Z,30.4367,-88.0117,0.5,29.43,2 
DISL,ioos:station:DISL:MBLA:1,2016-09-02T10:12:00Z,30.4367,-88.0117,0.5,29.39,2 
DISL,ioos:station:DISL:MBLA:1,2016-09-02T10:15:00Z,30.4367,-88.0117,0.5,29.35,2 
DISL,ioos:station:DISL:MBLA:1,2016-09-02T10:17:00Z,30.4367,-88.0117,0.5,29.3,2 
DISL,ioos:station:DISL:MBLA:1,2016-09-02T11:03:00Z,30.4367,-88.0117,0.5,29.88,2 
DISL,ioos:station:DISL:MBLA:1,2016-09-02T11:05:00Z,30.4367,-88.0117,0.5,29.57,2 
DISL,ioos:station:DISL:MBLA:1,2016-09-02T11:07:00Z,30.4367,-88.0117,0.5,29.49,2 
DISL,ioos:station:DISL:MBLA:1,2016-09-02T11:10:00Z,30.4367,-88.0117,0.5,29.36,2 
DISL,ioos:station:DISL:MBLA:1,2016-09-02T11:12:00Z,30.4367,-88.0117,0.5,29.29,2 
DISL,ioos:station:DISL:MBLA:1,2016-09-02T11:15:00Z,30.4367,-88.0117,0.5,29.25,2 
DISL,ioos:station:DISL:MBLA:1,2016-09-02T11:17:00Z,30.4367,-88.0117,0.5,29.23,2 
DISL,ioos:station:DISL:MBLA:1,2016-09-02T12:03:00Z,30.4367,-88.0117,0.5,29.88,2 
DISL,ioos:station:DISL:MBLA:1,2016-09-02T12:05:00Z,30.4367,-88.0117,0.5,29.58,2 
DISL,ioos:station:DISL:MBLA:1,2016-09-02T12:07:00Z,30.4367,-88.0117,0.5,29.42,2 
DISL,ioos:station:DISL:MBLA:1,2016-09-02T12:10:00Z,30.4367,-88.0117,0.5,29.31,2 
DISL,ioos:station:DISL:MBLA:1,2016-09-02T12:12:00Z,30.4367,-88.0117,0.5,29.25,2 
DISL,ioos:station:DISL:MBLA:1,2016-09-02T12:14:00Z,30.4367,-88.0117,0.5,29.23,2 
DISL,ioos:station:DISL:MBLA:1,2016-09-02T12:17:00Z,30.4367,-88.0117,0.5,29.24,2 
DISL,ioos:station:DISL:MBLA:1,2016-09-02T13:03:00Z,30.4367,-88.0117,0.5,29.89,2 
DISL,ioos:station:DISL:MBLA:1,2016-09-02T13:05:00Z,30.4367,-88.0117,0.5,29.54,2 
DISL,ioos:station:DISL:MBLA:1,2016-09-02T13:07:00Z,30.4367,-88.0117,0.5,29.55,2 
DISL,ioos:station:DISL:MBLA:1,2016-09-02T13:10:00Z,30.4367,-88.0117,0.5,29.34,2 
DISL,ioos:station:DISL:MBLA:1,2016-09-02T13:12:00Z,30.4367,-88.0117,0.5,29.23,2 
DISL,ioos:station:DISL:MBLA:1,2016-09-02T13:14:00Z,30.4367,-88.0117,0.5,29.21,2 
DISL,ioos:station:DISL:MBLA:1,2016-09-02T13:18:00Z,30.4367,-88.0117,0.5,29.22,2 
DISL,ioos:station:DISL:MBLA:1,2016-09-02T14:03:00Z,30.4367,-88.0117,0.5,29.92,2 
DISL,ioos:station:DISL:MBLA:1,2016-09-02T14:05:00Z,30.4367,-88.0117,0.5,29.71,2 
DISL,ioos:station:DISL:MBLA:1,2016-09-02T14:07:00Z,30.4367,-88.0117,0.5,29.62,2 
DISL,ioos:station:DISL:MBLA:1,2016-09-02T14:10:00Z,30.4367,-88.0117,0.5,29.43,2 
DISL,ioos:station:DISL:MBLA:1,2016-09-02T14:12:00Z,30.4367,-88.0117,0.5,29.33,2 
DISL,ioos:station:DISL:MBLA:1,2016-09-02T14:15:00Z,30.4367,-88.0117,0.5,29.31,2 
DISL,ioos:station:DISL:MBLA:1,2016-09-02T14:17:00Z,30.4367,-88.0117,0.5,29.31,2 
DISL,ioos:station:DISL:MBLA:1,2016-09-02T15:03:00Z,30.4367,-88.0117,0.5,29.99,2 
DISL,ioos:station:DISL:MBLA:1,2016-09-02T15:05:00Z,30.4367,-88.0117,0.5,29.79,2 
DISL,ioos:station:DISL:MBLA:1,2016-09-02T15:08:00Z,30.4367,-88.0117,0.5,29.8,2 
DISL,ioos:station:DISL:MBLA:1,2016-09-02T15:10:00Z,30.4367,-88.0117,0.5,29.42,2 
DISL,ioos:station:DISL:MBLA:1,2016-09-02T15:13:00Z,30.4367,-88.0117,0.5,29.3,2 
DISL,ioos:station:DISL:MBLA:1,2016-09-02T15:15:00Z,30.4367,-88.0117,0.5,29.32,2 
DISL,ioos:station:DISL:MBLA:1,2016-09-02T15:18:00Z,30.4367,-88.0117,0.5,29.43,2 
DISL,ioos:station:DISL:MBLA:1,2016-09-02T16:02:00Z,30.4367,-88.0117,0.5,29.96,2 
DISL,ioos:station:DISL:MBLA:1,2016-09-02T16:05:00Z,30.4367,-88.0117,0.5,29.8,2 
DISL,ioos:station:DISL:MBLA:1,2016-09-02T16:07:00Z,30.4367,-88.0117,0.5,29.68,2 
DISL,ioos:station:DISL:MBLA:1,2016-09-02T16:10:00Z,30.4367,-88.0117,0.5,29.59,2 
DISL,ioos:station:DISL:MBLA:1,2016-09-02T16:12:00Z,30.4367,-88.0117,0.5,29.39,2 
DISL,ioos:station:DISL:MBLA:1,2016-09-02T16:15:00Z,30.4367,-88.0117,0.5,29.53,2 
DISL,ioos:station:DISL:MBLA:1,2016-09-02T16:18:00Z,30.4367,-88.0117,0.5,29.7,2 
DISL,ioos:station:DISL:MBLA:1,2016-09-02T17:03:00Z,30.4367,-88.0117,0.5,29.88,2 
DISL,ioos:station:DISL:MBLA:1,2016-09-02T17:08:00Z,30.4367,-88.0117,0.5,29.55,2 
DISL,ioos:station:DISL:MBLA:1,2016-09-02T17:10:00Z,30.4367,-88.0117,0.5,29.46,2 
DISL,ioos:station:DISL:MBLA:1,2016-09-02T17:13:00Z,30.4367,-88.0117,0.5,29.48,2 
DISL,ioos:station:DISL:MBLA:1,2016-09-02T17:15:00Z,30.4367,-88.0117,0.5,29.77,2 
DISL,ioos:station:DISL:MBLA:1,2016-09-02T17:18:00Z,30.4367,-88.0117,0.5,30.02,2 
DISL,ioos:station:DISL:MBLA:1,2016-09-02T18:03:00Z,30.4367,-88.0117,0.5,29.98,2 
DISL,ioos:station:DISL:MBLA:1,2016-09-02T18:05:00Z,30.4367,-88.0117,0.5,29.67,2 
DISL,ioos:station:DISL:MBLA:1,2016-09-02T18:08:00Z,30.4367,-88.0117,0.5,29.63,2 
DISL,ioos:station:DISL:MBLA:1,2016-09-02T18:10:00Z,30.4367,-88.0117,0.5,29.55,2 
DISL,ioos:station:DISL:MBLA:1,2016-09-02T18:13:00Z,30.4367,-88.0117,0.5,29.57,2 
DISL,ioos:station:DISL:MBLA:1,2016-09-02T18:15:00Z,30.4367,-88.0117,0.5,30.0,2 
DISL,ioos:station:DISL:MBLA:1,2016-09-02T18:18:00Z,30.4367,-88.0117,0.5,30.61,2 
DISL,ioos:station:DISL:MBLA:1,2016-09-02T19:03:00Z,30.4367,-88.0117,0.5,30.01,2 
DISL,ioos:station:DISL:MBLA:1,2016-09-02T19:05:00Z,30.4367,-88.0117,0.5,29.63,2 
DISL,ioos:station:DISL:MBLA:1,2016-09-02T19:08:00Z,30.4367,-88.0117,0.5,29.56,2 
DISL,ioos:station:DISL:MBLA:1,2016-09-02T19:10:00Z,30.4367,-88.0117,0.5,29.67,2 
DISL,ioos:station:DISL:MBLA:1,2016-09-02T19:13:00Z,30.4367,-88.0117,0.5,29.86,2 
DISL,ioos:station:DISL:MBLA:1,2016-09-02T19:16:00Z,30.4367,-88.0117,0.5,29.99,2 
DISL,ioos:station:DISL:MBLA:1,2016-09-02T19:18:00Z,30.4367,-88.0117,0.5,30.61,2 
DISL,ioos:station:DISL:MBLA:1,2016-09-02T20:03:00Z,30.4367,-88.0117,0.5,30.0,2 
DISL,ioos:station:DISL:MBLA:1,2016-09-02T20:05:00Z,30.4367,-88.0117,0.5,29.9,2 
DISL,ioos:station:DISL:MBLA:1,2016-09-02T20:08:00Z,30.4367,-88.0117,0.5,29.77,2 
DISL,ioos:station:DISL:MBLA:1,2016-09-02T20:10:00Z,30.4367,-88.0117,0.5,29.9,2 
DISL,ioos:station:DISL:MBLA:1,2016-09-02T20:13:00Z,30.4367,-88.0117,0.5,29.95,2 
DISL,ioos:station:DISL:MBLA:1,2016-09-02T20:15:00Z,30.4367,-88.0117,0.5,30.42,2 
DISL,ioos:station:DISL:MBLA:1,2016-09-02T20:18:00Z,30.4367,-88.0117,0.5,30.98,2 